Location: Alfortville
(48.8058°N, 2.4204°E)
Time: 23:16:48
(UTC+00:00)

SR - Pass Details

Date: 18 April 2026
Orbit: 568 x 852 km, 66.7° (Epoch: 19 May)

Event Time Altitude Azimuth Distance (km) Brightness Sun altitude
Rises 19:20:29 0° 323° (NW) 3,195 ? -6.1°
Reaches altitude 10° 19:23:50 10° 346° (NNW) 2,328 ? -6.6°
Maximum altitude 19:27:01 16° 22° (NNE) 2,007 ? -7.0°
Drops below altitude 10° 19:30:18 10° 59° (ENE) 2,418 ? -7.5°
Enters shadow 19:33:14 - 78° (ENE) 3,189 ? -7.9°
